www.pogodaiklimat.ru

Погода и климат >> Архив погоды >> Венгрия >> Шопрон


ПОГОДА в Шопроне

  • Прогноз погоды в Шопроне
  • Монитор погоды в Шопроне

АРХИВ ПОГОДЫ в Шопроне

Время (UTC), дата Ветер
(напр.,м/с)
 
Видим.   Явления Облачность Т
(С)
Тd
(С)
f
(%)
Тe
(С)
Тes
(С)
Комфортность P
(гПа)
Po
(гПа)
Тmin
(С)
Tmax
(С)
R
(мм)
R24
(мм)
S
(см)
19 15.02 ЮЗ 1 н/о н/о +1.1 -0.7 88 -1 -1 1034.6 1019.4
20 15.02 З 1 н/о н/о +1.4 -0.7 86 -0 -0 1034.5 1019.3
21 15.02 З 1 н/о н/о +0.3 -1.0 91 -2 -2 1034.3 1019.1
22 15.02 З 2 н/о н/о -0.9 -2.0 92 -5 -5 1034.2 1018.9
23 15.02 З 2 н/о н/о -0.4 -1.4 93 -4 -4 1034.0 1018.7
00 16.02 З 2 н/о н/о -0.6 -1.3 95 -5 -5 1033.7 1018.4
01 16.02 З 1 н/о н/о -1.5 -2.2 95 -4 -4 1033.5 1018.2
02 16.02 ЮЗ 1 н/о н/о -2.0 -2.4 97 -4 -4 1033.0 1017.7
03 16.02 З 1 н/о н/о -2.2 -2.9 95 -5 -5 1032.7 1017.4
04 16.02 З 1 н/о н/о -2.0 -3.0 93 -4 -4 1032.7 1017.4
05 16.02 ЮЗ 1 н/о н/о -3.0 -3.7 95 -5 -5 1032.7 1017.3
06 16.02 ЮЗ 1 н/о н/о -3.3 -3.7 97 -6 -6 1033.0 1017.6 -3.8
07 16.02 З 1 н/о н/о -1.3 -2.1 94 -4 -4 1033.6 1018.3
08 16.02 С 1 н/о н/о +3.5 +0.6 81 +2 +2 1033.4 1018.4
09 16.02 В 1 н/о н/о +6.2 -0.3 63 +6 +6 1032.9 1018.0
10 16.02 В 1 н/о н/о +7.9 -0.6 55 +8 +8 1032.6 1017.8
11 16.02 В 2 н/о н/о +9.1 -0.2 52 +8 +8 1032.0 1017.3
12 16.02 В 2 н/о н/о +10.7 -1.7 42 +10 +10 1031.5 1016.9
13 16.02 СВ 2 н/о н/о +11.7 -1.1 41 +11 +11 1030.9 1016.3
14 16.02 СВ 2 н/о н/о +12.0 +0.1 44 +11 +11 1030.4 1015.9
15 16.02 С 2 н/о н/о +11.1 +0.2 47 +10 +10 1030.3 1015.7
16 16.02 н/о н/о +9.3 +0.2 53 1030.2 1015.5
17 16.02 штиль 0 н/о н/о +3.6 -0.8 73 +3 +3 1030.8 1015.8
18 16.02 З 1 н/о н/о +3.7 -0.5 74 +2 +2 1031.1 1016.1 +12.1
19 16.02 СЗ 2 н/о н/о +3.1 -0.7 76 0 0 1031.1 1016.1
20 16.02 З 2 н/о н/о +2.1 -1.0 80 -1 -1 1030.9 1015.8
21 16.02 З 1 н/о н/о +0.1 -2.4 83 -2 -2 1030.9 1015.7
22 16.02 З 2 н/о н/о +0.5 -1.4 87 -3 -3 1030.8 1015.6
23 16.02 З 1 н/о н/о -0.8 -1.6 94 -3 -3 1030.6 1015.4
00 17.02 З 2 н/о н/о -1.3 -1.9 96 -5 -5 1030.0 1014.8
01 17.02 З 2 н/о н/о -1.6 -2.3 95 -6 -6 1030.0 1014.7
02 17.02 З 2 н/о н/о -2.1 -2.6 96 -6 -6 1029.6 1014.3
03 17.02 З 2 н/о н/о -2.1 -2.6 96 -6 -6 1029.6 1014.3
04 17.02 З 2 н/о н/о -2.7 -3.2 96 -7 -7 1029.7 1014.4
05 17.02 З 2 н/о н/о -2.5 -2.9 97 -7 -7 1029.7 1014.4
06 17.02 З 2 н/о н/о -2.6 -2.9 98 -7 -7 1029.9 1014.6 -3.1
07 17.02 СЗ 2 н/о н/о -2.5 -2.8 98 -7 -7 1030.6 1015.3
08 17.02 С 1 н/о н/о +1.1 +0.5 96 -1 -1 1030.4 1015.3
09 17.02 С 1 н/о н/о +1.9 +1.6 98 -0 -0 1030.5 1015.4
10 17.02 СВ 2 н/о н/о +2.9 +2.3 96 -0 -0 1030.4 1015.4
11 17.02 СВ 1 н/о н/о +5.5 +1.2 74 +5 +5 1029.7 1014.8
12 17.02 СВ 2 н/о н/о +7.3 +1.4 66 +5 +5 1028.8 1014.0
13 17.02 В 2 н/о н/о +8.6 +1.0 59 +7 +7 1027.8 1013.1
14 17.02 ЮВ 1 н/о н/о +9.8 +1.4 56 +10 +10 1027.3 1012.7
15 17.02 В 1 н/о н/о +10.0 +0.6 52 +10 +10 1026.8 1012.2
16 17.02 штиль 0 н/о н/о +8.1 +0.1 57 +8 +8 1026.6 1011.9
17 17.02 штиль 0 н/о н/о +3.5 -0.7 74 +3 +3 1027.1 1012.2
18 17.02 З 1 н/о н/о +2.7 -0.2 81 +1 +1 1027.1 1012.1 +10.1
19 17.02 штиль 0 н/о н/о +0.7 -0.3 93 -1 -1 1027.2 1012.1
20 17.02 штиль 0 н/о н/о -1.2 -2.2 93 -2 -2 1027.4 1012.2
21 17.02 З 1 н/о н/о -0.3 -1.3 93 -2 -2 1027.3 1012.2
22 17.02 З 3 н/о н/о -0.3 -1.4 92 -5 -5 1027.1 1012.0
23 17.02 З 1 н/о н/о -0.6 -1.4 94 -3 -3 1027.0 1011.8
00 18.02 З 1 н/о н/о -1.8 -2.5 95 -4 -4 1026.9 1011.7
01 18.02 З 1 н/о н/о -3.5 -4.0 96 -6 -6 1026.9 1011.6
02 18.02 З 2 н/о н/о -1.3 -1.6 98 -5 -5 1026.4 1011.2
03 18.02 З 2 н/о н/о -2.4 -2.8 97 -7 -7 1026.4 1011.1
04 18.02 З 2 н/о н/о -2.3 -2.7 97 -6 -6 1026.3 1011.1
05 18.02 З 2 н/о н/о -2.6 -2.9 98 -7 -7 1026.3 1011.0
06 18.02 З 3 н/о н/о -3.1 -3.2 99 -9 -9 1026.5 1011.2 -3.7
07 18.02 З 2 н/о н/о -1.6 -1.9 98 -6 -6 1026.8 1011.6
08 18.02 штиль 0 н/о н/о +2.3 +0.8 90 +1 +1 1026.5 1011.5
09 18.02 СВ 1 н/о н/о +4.1 +1.6 84 +3 +3 1026.2 1011.3
10 18.02 СВ 2 н/о н/о +5.5 +1.8 77 +3 +3 1026.0 1011.2
11 18.02 В 1 н/о н/о +6.2 +1.7 73 +5 +5 1025.3 1010.5
12 18.02 СВ 2 н/о н/о +7.1 +1.6 68 +5 +5 1024.4 1009.7
13 18.02 СВ 2 н/о н/о +9.0 +2.8 65 +8 +8 1023.1 1008.5
14 18.02 С 1 н/о н/о +10.2 +3.5 63 +10 +10 1022.3 1007.8
15 18.02 С 1 н/о н/о +11.3 +3.6 59 +11 +11 1021.8 1007.3
16 18.02 С 1 н/о н/о +10.1 +2.7 60 +10 +10 1021.4 1006.9
17 18.02 С 2 н/о н/о +5.8 +2.3 78 +3 +3 1021.8 1007.1
18 18.02 С 1 н/о н/о +3.3 +1.8 90 +2 +2 1022.0 1007.1 +11.8
19 18.02 Ю 2 н/о н/о +2.4 -0.5 81 -1 -1 1021.7 1006.8
20 18.02 ЮВ 2 н/о н/о +2.1 -0.6 82 -1 -1 1021.5 1006.6
21 18.02 ЮВ 2 н/о н/о -0.5 -1.9 90 -4 -4 1021.3 1006.2
22 18.02 штиль 0 н/о н/о -1.0 -1.6 96 -2 -2 1021.1 1006.0
23 18.02 С 2 н/о н/о -1.2 -1.9 95 -5 -5 1021.0 1005.9
00 19.02 штиль 0 н/о н/о -3.0 -3.4 97 -4 -4 1020.7 1005.5
01 19.02 С 1 н/о н/о -1.6 -1.6 100 -4 -4 1020.3 1005.2
02 19.02 СЗ 1 н/о н/о -2.1 -2.1 100 -5 -5 1020.0 1004.9
03 19.02 З 2 н/о н/о -0.7 -1.0 98 -5 -5 1020.0 1004.9
04 19.02 З 2 н/о н/о -1.1 -1.7 96 -5 -5 1020.5 1005.4
05 19.02 З 2 н/о н/о -1.1 -1.7 96 -5 -5 1020.5 1005.4
06 19.02 СЗ 2 н/о н/о -0.2 -1.0 94 -4 -4 1020.8 1005.8 -3.5
07 19.02 З 2 н/о н/о +0.4 -0.7 92 -3 -3 1021.5 1006.5
08 19.02 штиль 0 н/о н/о +4.3 +1.5 82 +3 +3 1021.3 1006.5
09 19.02 С 2 н/о н/о +6.4 +0.9 68 +4 +4 1021.4 1006.7
10 19.02 СВ 2 н/о н/о +8.0 +0.9 61 +6 +6 1021.4 1006.8
11 19.02 СВ 1 н/о н/о +9.1 +0.5 55 +9 +9 1021.2 1006.6
12 19.02 В 2 н/о н/о +10.7 +0.4 49 +10 +10 1020.5 1006.0
13 19.02 В 2 н/о н/о +12.4 +0.2 43 +12 +12 1019.7 1005.3
14 19.02 В 2 н/о н/о +13.5 +0.2 40 +13 +13 1019.3 1005.0
15 19.02 Ю 1 н/о н/о +14.6 -0.3 36 +15 +15 1019.2 1004.9
16 19.02 Ю 3 н/о н/о +10.1 +0.2 50 +8 +8 1019.4 1004.9
17 19.02 ЮЗ 1 н/о н/о +6.9 -0.1 61 +6 +6 1020.0 1005.3
18 19.02 штиль 0 н/о н/о +6.2 -0.8 61 +6 +6 1020.3 1005.6 +14.9
19 19.02 ЮЗ 3 н/о н/о +4.9 -0.5 68 +2 +2 1020.3 1005.5
20 19.02 СЗ 1 н/о н/о +5.0 -0.2 69 +4 +4 1020.5 1005.7
21 19.02 СЗ 1 н/о н/о +4.5 -0.7 69 +3 +3 1020.6 1005.8
22 19.02 З 2 н/о н/о +2.0 -1.3 79 -1 -1 1020.7 1005.8
23 19.02 З 2 н/о н/о +3.3 -0.9 74 +1 +1 1021.0 1006.1
00 20.02 З 2 н/о н/о +3.6 -0.8 73 +1 +1 1021.2 1006.4
01 20.02 СЗ 1 н/о н/о +4.1 -0.9 70 +3 +3 1021.6 1006.8
02 20.02 З 2 н/о н/о +4.5 -0.1 72 +2 +2 1022.0 1007.2
03 20.02 З 2 н/о н/о +5.1 +1.8 79 +3 +3 1022.3 1007.5
04 20.02 СЗ 4
{7}
н/о н/о +7.0 +1.9 70 +4 +4 1022.8 1008.1
05 20.02 З 3 н/о н/о +5.8 +1.1 72 +3 +3 1023.1 1008.3
06 20.02 СЗ 3 н/о н/о +4.7 +0.8 76 +1 +1 1023.5 1008.7 +1.2
07 20.02 СЗ 4
{7}
н/о н/о +8.3 +2.7 68 +5 +5 1023.9 1009.3
08 20.02 СЗ 4
{8}
н/о н/о +9.0 +1.4 59 +6 +6 1024.3 1009.7
09 20.02 СЗ 5
{9}
н/о н/о +9.8 +1.7 57 +7 +7 1024.7 1010.1
10 20.02 СЗ 4
{9}
н/о н/о +10.5 +1.1 52 +8 +8 1025.0 1010.5
11 20.02 СЗ 4
{9}
н/о н/о +10.6 +0.3 49 +9 +9 1024.9 1010.4
12 20.02 СЗ 4
{8}
н/о н/о +11.0 -1.4 42 +9 +9 1024.8 1010.3
13 20.02 СЗ 4
{8}
н/о н/о +12.3 -1.2 39 +11 +11 1024.3 1009.9
14 20.02 СЗ 4
{7}
н/о н/о +12.0 -1.2 40 +10 +10 1024.2 1009.7
15 20.02 СЗ 4
{7}
н/о н/о +11.6 -1.9 39 +10 +10 1024.1 1009.6
16 20.02 СЗ 2 н/о н/о +9.8 -1.0 47 +9 +9 1024.5 1009.9
17 20.02 З 1 н/о н/о +7.3 -0.4 58 +7 +7 1025.2 1010.5
18 20.02 З 2 н/о н/о +5.3 -0.5 66 +3 +3 1025.9 1011.1 +12.6
19 20.02 З 2 н/о н/о +5.1 +0.3 71 +3 +3 1026.4 1011.6
20 20.02 Ю 1 н/о н/о +2.7 -0.7 78 +1 +1 1027.2 1012.2
21 20.02 Ю 1 н/о н/о +1.1 -0.5 89 -1 -1 1027.6 1012.5
22 20.02 З 1 н/о н/о +2.8 +0.9 87 +1 +1 1027.7 1012.7
23 20.02 СЗ 2 н/о н/о +1.9 +0.3 89 -1 -1 1027.7 1012.7
00 21.02 З 2 н/о н/о +1.9 +0.1 88 -1 -1 1027.9 1012.9
01 21.02 З 2 н/о н/о +1.3 0.0 91 -2 -2 1028.3 1013.2
02 21.02 СЗ 1 н/о н/о 0.0 -0.7 95 -2 -2 1028.2 1013.1
03 21.02 С 1 н/о н/о +0.6 +0.2 97 -2 -2 1028.4 1013.3
04 21.02 Ю 1 н/о н/о +0.3 -0.3 96 -2 -2 1028.7 1013.6
05 21.02 ЮВ 1 н/о н/о +0.4 0.0 97 -2 -2 1028.5 1013.4
06 21.02 штиль 0 н/о н/о +1.4 +0.8 96 0 0 1028.7 1013.6 -1.3
07 21.02 З 1 н/о н/о +2.9 +1.7 92 +1 +1 1028.9 1013.9
08 21.02 штиль 0 н/о н/о +5.0 +2.4 83 +4 +4 1028.9 1014.0
09 21.02 ЮВ 1 н/о н/о +9.2 +4.4 72 +9 +9 1028.5 1013.8
10 21.02 ЮВ 1 н/о н/о +10.6 +2.9 59 +11 +11 1028.4 1013.8
11 21.02 В 1 н/о н/о +11.9 +2.9 54 +12 +12 1027.7 1013.2
12 21.02 В 2 н/о н/о +13.2 +2.7 49 +13 +13 1027.0 1012.6
13 21.02 СЗ 5
{9}
н/о н/о +14.9 +1.4 40 +14 +14 1026.0 1011.7
14 21.02 СЗ 4
{11}
н/о н/о +14.8 +0.6 38 +14 +14 1025.7 1011.4
15 21.02 СЗ 4
{9}
н/о н/о +13.7 +1.4 43 +12 +12 1025.6 1011.2
16 21.02 СЗ 4
{9}
н/о н/о +12.8 +1.8 47 +11 +11 1025.5 1011.1
17 21.02 СЗ 4
{7}
н/о н/о +11.9 +3.2 55 +10 +10 1025.7 1011.2
18 21.02 З 3
{9}
н/о н/о +11.3 +3.3 58 +10 +10 1025.8 1011.3 +15.5
19 21.02 СЗ 2 н/о н/о +10.8 +3.6 61 +10 +10 1025.9 1011.4
20 21.02 З 1 н/о н/о +9.9 +2.7 61 +10 +10 1025.5 1010.9
21 21.02 З 1 н/о н/о +8.4 +3.3 70 +8 +8 1025.4 1010.7
22 21.02 СЗ 3 н/о н/о +10.8 +2.9 58 +9 +9 1025.0 1010.5
23 21.02 СЗ 4
{8}
н/о н/о +9.5 +2.4 61 +7 +7 1025.0 1010.4
00 22.02 СЗ 5
{8}
н/о н/о +9.1 +2.2 62 +6 +6 1024.9 1010.3
01 22.02 З 3
{8}
н/о н/о +9.3 +2.4 62 +7 +7 1024.6 1010.0
02 22.02 СЗ 3
{7}
н/о н/о +8.8 +3.8 71 +6 +6 1024.0 1009.4
03 22.02 СЗ 3 н/о н/о +9.3 +3.7 68 +7 +7 1023.5 1008.9
04 22.02 СЗ 5
{9}
н/о н/о +8.7 +5.1 78 +5 +5 1023.0 1008.4
05 22.02 СЗ 5
{12}
н/о н/о +7.6 +5.7 88 +4 +4 1023.2 1008.5
06 22.02 З 6
{13}
н/о н/о +7.1 +5.6 90 +3 +3 1023.0 1008.3 +7.0 2
07 22.02 СЗ 6
{11}
н/о н/о +7.9 +6.2 89 +4 +4 1023.6 1008.9
08 22.02 З 6
{11}
н/о н/о +8.7 +6.7 87 +5 +5 1023.9 1009.3
09 22.02 СЗ 8
{16}
н/о н/о +9.7 +6.8 82 +6 +6 1024.4 1009.8
10 22.02 СЗ 7
{12}
н/о н/о +10.2 +5.8 74 +7 +7 1025.5 1010.9
11 22.02 С 8
{14}
н/о н/о +7.7 +4.1 78 +3 +3 1026.6 1011.9
12 22.02 С 11
{19}
н/о н/о +8.2 +1.4 62 +3 +3 1027.9 1013.2 0.4
13 22.02 С 8
{20}
н/о н/о +7.8 +0.8 61 +3 +3 1029.2 1014.5
14 22.02 С 10
{18}
н/о н/о +5.9 -1.0 61 0 0 1030.6 1015.7
15 22.02 СЗ 10
{17}
н/о н/о +5.1 -5.0 48 -1 -1 1031.6 1016.7
16 22.02 С 8
{16}
н/о н/о +3.5 -5.4 52 -2 -2 1033.5 1018.5
17 22.02 С 8
{15}
н/о н/о +2.0 -6.3 54 -4 -4 1035.2 1020.1
18 22.02 С 8
{14}
н/о н/о +1.5 -6.6 55 -5 -5 1036.5 1021.3 +10.7 0.4

 

Местоположение метеостанции Шопрон (Венгрия): широта 47.68 долгота 16.60 высота над уровнем моря 239 м.

В архиве по умолчанию представлена погода в Шопроне за последнюю неделю. Архивные данные за месяц целиком и за предыдущие месяцы, начиная с января 2011 года, Вы можете получить, выбрав интересующий диапазон дат из раскрывающегося списка и нажав кнопку "Ввод!".


*Определитесь, кто Вы:
робот инопланетянин человек

Внимание! Время в таблицах - всемирное. Для получения местного времени необходимо прибавить поправку, которая равна 1 ч.

Смотрите также архив погоды в соседних городах и на ближайших метеорологических станциях:

Погода в Айзенштадте (Австрия) (20 км)
Погода в Луцмансбурге (Австрия) (24 км)
Погода в Винер-Нойштадт (Австрия) (33 км)
Погода в Андау (Австрия) (34 км)
Погода в Зайберсдорфе (Австрия) (34 км)
Погода в Крумбахе (Австрия) (35 км)
Погода в Нойзидль-ам-Зе (Австрия) (35 км)
Погода в Хоэ-Ванде (Австрия) (45 км)
Погода в Сомбатхее (Венгрия) (46 км)
Погода в Гумпольдскирхене (Австрия) (46 км)

Пояснения к столбцам:

Ветер - указаны скорость ветра в м/с - средняя за 10 мин, порывы в срок и между сроками (в фигурных скобках) и направление, откуда дует ветер: С - северный, СВ - северо-восточный, В - восточный, ЮВ - юго-восточный, Ю - южный, ЮЗ - юго-западный, З - западный, СЗ - северо-западный.
Видимость - горизонтальная дальность видимости в метрах или километрах. При видимости от 1 до 10 км при отсутствии осадков обычно наблюдается дымка, при ухудшении видимости до 1 км и менее - туман. В сухую погоду видимость может ухудшаться дымом, пылью или мглою.
Явления - указаны атмосферные явления, наблюдавшиеся в срок или в последний час перед сроком; фигурными скобками обозначены явления, наблюдавшиеся между сроками (за 1-3 часа до срока); квадратными скобками обозначены град или гололедные отложения с указанием их диаметра в мм.
Облачность - указаны через наклонную черту общая и нижняя облачность в баллах и высота нижней границы облаков в метрах; квадратными скобками обозначены формы облаков: Ci - перистые, Cs - перисто-слоистые, Cc - перисто-кучевые, Ac - высококучевые, As - высокослоистые, Sc - слоисто-кучевые, Ns - слоисто-дождевые, Cu - кучевые, Cb - кучево-дождевые. Подробнее классификацию облаков см. в Атласе облаков (PDF).
T - Температура воздуха - температура, измеренная на высоте 2 м над землей.
Td - Температура точки росы - температура, при понижении до которой содержащийся в воздухе водяной пар достигнет насыщения.
f - Относительная влажность воздуха - влажноcть воздуха, измеренная на высоте 2 м над землей.
Te - Эффективная температура - температура, которую ощущает одетый по сезону человек в тени. Характеристика душности погоды. При расчете учитывается влияние влажности воздуха и скорости ветра на теплоощущения человека.
Tes - Эффективная температура на солнце - температура, которую ощущает человек, с поправкой на солнечный нагрев. Характеристика знойности погоды. Зависит от высоты солнца над горизонтом, облачности и скорости ветра. Ночью, в пасмурную погоду, а также при ветре 12 м/с и более поправка равна нулю.
P - Атмосферное давление - приведенное к уровню моря атмосферное давление.
Po - Атмосферное давление - измеренное на уровне метеостанции атмосферное давление.
Tmin - Минимальная температура - минимум температуры воздуха на высоте 2 м над землей.
Tmax - Максимальная температура - максимум температуры воздуха на высоте 2 м над землей.
R - Количество осадков - Количество выпавших осадков за период времени, мм. При наведении курсора мыши на число - период времени, за который выпало указанное количество осадков.
R24 - Количество осадков - Количество выпавших осадков за 24 часа, мм.
S - Снежный покров - Высота снежного покрова, см. При наведении курсора мыши на число - состояние снежного покрова и степень покрытия местности в баллах.